KUIPER-00019

导读

KUIPER-00019是美国亚马逊柯伊伯项目的低轨卫星互联网卫星,于2025年4月28日发射。作为柯伊伯全球卫星星座的一员,它运行于近地轨道,旨在为全球尤其是偏远地区提供高速低延迟的卫星互联网接入服务。该项目计划发射超过3000颗卫星,此次发射是项目大规模部署阶段的重要组成,助力亚马逊构建覆盖全球的太空通信与云服务一体化基础设施。

基本信息
目录编号:
63734
目录名称:
KUIPER-00019
国际标识:
2025-088L
轨道中心:
EARTH
卫星名称:
KUIPER-00019
卫星全名:
KUIPER-00019
卫星状态:
在轨 (已飞行502 天)
发射日期:
2025-04-28 UTC
国别 :
美国 (US)
星等 :
--
该卫星已列入 空间交会检测服务 Space Conjunction Data Service (SCDS) ,当前飞行风险评估等级: 无高风险
轨道信息
数据来源 国际轨道数据
星历时间: 2026-09-11T22:11:29+0800
13小时前
查看轨道信息
半长轴: 7007.676km
偏心率: 0.0000306
轨道倾角: 51.901°
近地点辐角 142.680°
升交点赤经 357.304°
平近点角 217.419°
近地点: 629.324km
远地点: 629.754km
周期: 97.302分钟
每日圈数: 14.799322
详细信息
使用方式:
暂无
2D轨道图
3D轨道图
轨道高度分析图
轨道倾角分析图
轨道综合分析图
查看轨道综合分析图
与全量物体交会距离演化趋势
与全量物体交会风险概率演化趋势